Tracking 30743 objects as of 24-Jun-2025
HD Live streaming from Space Station
objects crossing your sky now

STARLINK-4659

Track STARLINK-4659 now!
10-day predictions
STARLINK-4659 is classified as:


NORAD ID: 54841
Int'l Code: 2022-177X
Perigee: 565.4 km
Apogee: 567.0 km
Inclination: 43.0 °
Period: 95.8 minutes
Semi major axis: 6937 km
RCS: Unknown
Launch date: December 28, 2022
Source: United States (US)
Launch site: AIR FORCE EASTERN TEST RANGE (AFETR)
Your satellite tracking list
Your tracking list is empty




NASA's NSSDC Master Catalog

Two Line Element Set (TLE):
1 54841U 22177X   25175.45968555 -.00000153  00000-0  37079-5 0  9999
2 54841  43.0028  96.2414 0001185 265.2537  94.8170 15.02534694138114
Source of the keplerian elements: AFSPC